• In Latvia
  • List of Countries
  • For 7 days
  • Water Temperature
  • Satellite Maps
  • Weather Map
  • Weather Widgets
  • user-avatar
    Login

    Hourly Weather Pogrebische

    Today, 23 July, Monday

    Time Temperature Precipitation Wind Pressure Humidity
    00:00 +18°C° 0 mm 2 mps 734 mmHg 92%
    01:00 +18°C° 0 mm 3 mps 734 mmHg 93%
    02:00 +18°C° 0 mm 2 mps 734 mmHg 93%
    03:00 +18°C° 0 mm 2 mps 734 mmHg 94%
    04:00 +17°C° 0 mm 2 mps 734 mmHg 94%
    05:00 +17°C° 0 mm 2 mps 733 mmHg 95%
    06:00 +18°C° 0.1 mm 3 mps 734 mmHg 92%
    07:00 +19°C° 0.1 mm 3 mps 734 mmHg 90%
    08:00 +21°C° 0.1 mm 3 mps 734 mmHg 87%
    09:00 +21°C° 0.1 mm 3 mps 733 mmHg 86%
    10:00 +21°C° 0.1 mm 3 mps 733 mmHg 86%
    11:00 +21°C° 0.1 mm 3 mps 733 mmHg 85%
    12:00 +22°C° 0 mm 3 mps 733 mmHg 82%
    13:00 +24°C° 0 mm 3 mps 733 mmHg 80%
    14:00 +24°C° 0 mm 3 mps 733 mmHg 77%
    15:00 +25°C° 0.1 mm 3 mps 733 mmHg 77%
    16:00 +25°C° 0.1 mm 2 mps 733 mmHg 77%
    17:00 +25°C° 0.1 mm 2 mps 733 mmHg 76%
    18:00 +24°C° 0.2 mm 2 mps 732 mmHg 81%
    19:00 +23°C° 0.2 mm 2 mps 732 mmHg 85%
    20:00 +22°C° 0.2 mm 1 mps 732 mmHg 89%
    21:00 +21°C° 0.3 mm 1 mps 732 mmHg 91%
    22:00 +20°C° 0.3 mm 1 mps 732 mmHg 92%
    23:00 +20°C° 0.3 mm 1 mps 732 mmHg 94%

    Tomorrow, 24 July, Tuesday

    Time Temperature Precipitation Wind Pressure Humidity
    00:00 +19°C° 0 mm 2 mps 732 mmHg 95%
    01:00 +18°C° 0 mm 2 mps 732 mmHg 96%
    02:00 +18°C° 0 mm 2 mps 733 mmHg 97%
    03:00 +18°C° 0 mm 2 mps 733 mmHg 97%
    04:00 +18°C° 0 mm 2 mps 733 mmHg 97%
    05:00 +18°C° 0 mm 2 mps 733 mmHg 97%
    06:00 +19°C° 0 mm 3 mps 733 mmHg 95%
    07:00 +20°C° 0 mm 3 mps 733 mmHg 93%
    08:00 +20°C° 0 mm 3 mps 734 mmHg 92%
    09:00 +21°C° 0 mm 3 mps 734 mmHg 90%
    10:00 +21°C° 0 mm 3 mps 734 mmHg 89%
    11:00 +22°C° 0 mm 3 mps 734 mmHg 87%
    12:00 +22°C° 0.3 mm 3 mps 734 mmHg 85%
    13:00 +24°C° 0.3 mm 3 mps 734 mmHg 84%
    14:00 +24°C° 0.3 mm 3 mps 734 mmHg 82%
    15:00 +24°C° 0.4 mm 3 mps 734 mmHg 81%
    16:00 +24°C° 0.4 mm 3 mps 734 mmHg 81%
    17:00 +25°C° 0.4 mm 2 mps 734 mmHg 81%
    18:00 +24°C° 0.3 mm 2 mps 734 mmHg 84%
    19:00 +23°C° 0.3 mm 2 mps 734 mmHg 87%
    20:00 +21°C° 0.3 mm 2 mps 734 mmHg 90%
    21:00 +20°C° 0.2 mm 2 mps 735 mmHg 91%
    22:00 +20°C° 0.2 mm 2 mps 735 mmHg 92%
    23:00 +19°C° 0.2 mm 2 mps 735 mmHg 93%

    Day after tomorrow, 25 July, Wednesday

    Time Temperature Precipitation Wind Pressure Humidity
    00:00 +19°C° 0.4 mm 2 mps 735 mmHg 93%
    01:00 +19°C° 0.4 mm 2 mps 735 mmHg 93%
    02:00 +19°C° 0.4 mm 2 mps 735 mmHg 93%
    03:00 +19°C° 0.1 mm 1 mps 735 mmHg 93%
    04:00 +19°C° 0.1 mm 1 mps 735 mmHg 93%
    05:00 +19°C° 0.1 mm 1 mps 735 mmHg 93%
    06:00 +21°C° 0 mm 1 mps 735 mmHg 89%
    07:00 +22°C° 0 mm 1 mps 736 mmHg 85%
    08:00 +24°C° 0 mm 2 mps 736 mmHg 80%
    09:00 +25°C° 0.7 mm 2 mps 736 mmHg 74%
    10:00 +27°C° 0.7 mm 2 mps 736 mmHg 68%
    11:00 +28°C° 0.7 mm 2 mps 736 mmHg 62%
    12:00 +29°C° 0.2 mm 3 mps 736 mmHg 60%
    13:00 +29°C° 0.2 mm 3 mps 736 mmHg 59%
    14:00 +30°C° 0.2 mm 3 mps 736 mmHg 57%
    15:00 +29°C° 0.9 mm 3 mps 736 mmHg 60%
    16:00 +29°C° 0.9 mm 3 mps 736 mmHg 64%
    17:00 +29°C° 0.9 mm 2 mps 736 mmHg 68%
    18:00 +27°C° 0.3 mm 2 mps 736 mmHg 72%
    19:00 +25°C° 0.3 mm 1 mps 736 mmHg 76%
    20:00 +24°C° 0.3 mm 1 mps 736 mmHg 80%
    21:00 +23°C° 0.1 mm 1 mps 736 mmHg 82%
    22:00 +23°C° 0.1 mm 2 mps 737 mmHg 84%
    23:00 +21°C° 0.1 mm 2 mps 737 mmHg 87%

    26 July, Thursday

    Time Temperature Precipitation Wind Pressure Humidity
    00:00 +21°C° 0.1 mm 2 mps 737 mmHg 88%
    01:00 +20°C° 0.1 mm 2 mps 737 mmHg 90%
    02:00 +20°C° 0.1 mm 2 mps 737 mmHg 92%
    03:00 +20°C° 0 mm 2 mps 737 mmHg 92%
    04:00 +20°C° 0 mm 2 mps 737 mmHg 92%
    05:00 +21°C° 0 mm 1 mps 737 mmHg 93%
    06:00 +21°C° 0.2 mm 2 mps 738 mmHg 90%
    07:00 +23°C° 0.2 mm 2 mps 738 mmHg 87%
    08:00 +25°C° 0.2 mm 3 mps 738 mmHg 84%
    09:00 +26°C° 0.3 mm 3 mps 738 mmHg 78%
    10:00 +27°C° 0.3 mm 4 mps 738 mmHg 73%
    11:00 +29°C° 0.3 mm 4 mps 738 mmHg 68%
    12:00 +29°C° 0.4 mm 4 mps 738 mmHg 67%
    13:00 +29°C° 0.4 mm 4 mps 738 mmHg 67%
    14:00 +29°C° 0.4 mm 4 mps 738 mmHg 67%
    15:00 +29°C° 0.2 mm 4 mps 738 mmHg 68%
    16:00 +29°C° 0.2 mm 4 mps 738 mmHg 70%
    17:00 +29°C° 0.2 mm 3 mps 738 mmHg 71%
    18:00 +27°C° 0.2 mm 3 mps 738 mmHg 77%
    19:00 +26°C° 0.2 mm 3 mps 738 mmHg 83%
    20:00 +24°C° 0.2 mm 3 mps 739 mmHg 89%
    21:00 +22°C° 0 mm 3 mps 739 mmHg 90%
    22:00 +23°C° 0 mm 2 mps 739 mmHg 92%
    23:00 +21°C° 0 mm 2 mps 739 mmHg 94%

    27 July, Friday

    Time Temperature Precipitation Wind Pressure Humidity
    00:00 +21°C° 0 mm 2 mps 739 mmHg 94%
    01:00 +20°C° 0 mm 2 mps 739 mmHg 95%
    02:00 +20°C° 0 mm 3 mps 739 mmHg 95%
    03:00 +20°C° 0 mm 3 mps 739 mmHg 96%
    04:00 +20°C° 0 mm 3 mps 739 mmHg 96%
    05:00 +19°C° 0 mm 3 mps 739 mmHg 97%
    06:00 +21°C° 0 mm 3 mps 739 mmHg 93%
    07:00 +22°C° 0 mm 3 mps 739 mmHg 89%
    08:00 +23°C° 0 mm 4 mps 739 mmHg 86%
    09:00 +26°C° 0.3 mm 4 mps 739 mmHg 81%
    10:00 +27°C° 0.3 mm 4 mps 739 mmHg 76%
    11:00 +29°C° 0.3 mm 4 mps 738 mmHg 71%
    12:00 +29°C° 0.4 mm 3 mps 738 mmHg 69%
    13:00 +29°C° 0.4 mm 3 mps 738 mmHg 66%
    14:00 +30°C° 0.4 mm 2 mps 738 mmHg 64%
    15:00 +30°C° 0.3 mm 2 mps 738 mmHg 65%
    16:00 +30°C° 0.3 mm 3 mps 738 mmHg 67%
    17:00 +29°C° 0.3 mm 3 mps 738 mmHg 68%
    18:00 +28°C° 0.1 mm 2 mps 738 mmHg 74%
    19:00 +26°C° 0.1 mm 2 mps 738 mmHg 80%
    20:00 +25°C° 0.1 mm 2 mps 738 mmHg 86%
    21:00 +24°C° 0 mm 2 mps 738 mmHg 88%
    22:00 +24°C° 0 mm 2 mps 737 mmHg 90%
    23:00 +23°C° 0 mm 1 mps 737 mmHg 91%

    28 July, Saturday

    Time Temperature Precipitation Wind Pressure Humidity
    00:00 +23°C° 0 mm 2 mps 737 mmHg 93%
    01:00 +21°C° 0 mm 2 mps 737 mmHg 94%
    02:00 +21°C° 0 mm 2 mps 737 mmHg 95%
    03:00 +21°C° 0.3 mm 2 mps 737 mmHg 95%
    04:00 +21°C° 0.3 mm 2 mps 737 mmHg 96%
    05:00 +21°C° 0.3 mm 2 mps 737 mmHg 96%
    06:00 +23°C° 0 mm 2 mps 737 mmHg 93%
    07:00 +24°C° 0 mm 3 mps 737 mmHg 90%
    08:00 +25°C° 0 mm 3 mps 737 mmHg 86%
    09:00 +26°C° 0.3 mm 3 mps 737 mmHg 82%
    10:00 +27°C° 0.3 mm 4 mps 737 mmHg 78%
    11:00 +28°C° 0.3 mm 4 mps 737 mmHg 74%
    12:00 +28°C° 0.6 mm 4 mps 737 mmHg 72%
    13:00 +29°C° 0.6 mm 4 mps 737 mmHg 70%
    14:00 +29°C° 0.6 mm 4 mps 737 mmHg 69%
    15:00 +29°C° 0.4 mm 4 mps 737 mmHg 70%
    16:00 +29°C° 0.4 mm 4 mps 737 mmHg 72%
    17:00 +29°C° 0.4 mm 3 mps 737 mmHg 74%
    18:00 +27°C° 0.1 mm 3 mps 737 mmHg 79%
    19:00 +26°C° 0.1 mm 3 mps 737 mmHg 83%
    20:00 +25°C° 0.1 mm 2 mps 737 mmHg 88%
    21:00 +24°C° 0 mm 2 mps 737 mmHg 90%
    22:00 +24°C° 0 mm 2 mps 737 mmHg 92%
    23:00 +23°C° 0 mm 2 mps 737 mmHg 93%
    Show more